TimeEDT,TemperatureF,Dew PointF,Humidity,Sea Level PressureIn,VisibilityMPH,Wind Direction,Wind SpeedMPH,Gust SpeedMPH,PrecipitationIn,Events,Conditions,WindDirDegrees,DateUTC
12:35 AM,37.4,30.2,75,30.03,10.0,Calm,Calm,-,N/A,,Clear,0,2013-03-13 04:35:00
12:55 AM,35.6,30.2,81,30.03,10.0,Calm,Calm,-,N/A,,Clear,0,2013-03-13 04:55:00
1:35 AM,39.2,28.4,65,30.03,10.0,WSW,4.6,-,N/A,,Clear,250,2013-03-13 05:35:00
1:55 AM,41.0,28.4,61,30.03,10.0,West,3.5,-,N/A,,Clear,270,2013-03-13 05:55:00
2:15 AM,42.8,28.4,57,30.03,10.0,West,5.8,-,N/A,,Clear,270,2013-03-13 06:15:00
2:35 AM,42.8,30.2,61,30.03,10.0,NW,11.5,-,N/A,,Clear,310,2013-03-13 06:35:00
2:55 AM,42.8,30.2,61,30.04,10.0,WNW,11.5,17.3,N/A,,Clear,300,2013-03-13 06:55:00
3:15 AM,42.8,28.4,57,30.05,10.0,WNW,15.0,25.3,N/A,,Clear,300,2013-03-13 07:15:00
3:35 AM,42.8,28.4,57,30.04,10.0,NW,18.4,25.3,N/A,,Clear,320,2013-03-13 07:35:00
3:55 AM,42.8,26.6,53,30.05,10.0,NW,6.9,-,N/A,,Scattered Clouds,320,2013-03-13 07:55:00
4:15 AM,42.8,26.6,53,30.05,10.0,WNW,8.1,-,N/A,,Clear,290,2013-03-13 08:15:00
4:35 AM,41.0,23.0,49,30.05,10.0,NW,10.4,-,N/A,,Clear,310,2013-03-13 08:35:00
4:55 AM,41.0,23.0,49,30.06,10.0,NW,5.8,-,N/A,,Clear,310,2013-03-13 08:55:00
5:15 AM,39.2,23.0,52,30.06,10.0,WNW,3.5,-,N/A,,Clear,290,2013-03-13 09:15:00
5:35 AM,41.0,21.2,45,30.07,10.0,Calm,Calm,-,N/A,,Clear,0,2013-03-13 09:35:00
5:55 AM,37.4,23.0,56,30.07,10.0,Calm,Calm,-,N/A,,Clear,0,2013-03-13 09:55:00
6:15 AM,35.6,23.0,60,30.07,10.0,Calm,Calm,-,N/A,,Clear,0,2013-03-13 10:15:00
6:35 AM,35.6,21.2,56,30.07,10.0,Calm,Calm,-,N/A,,Clear,0,2013-03-13 10:35:00
6:55 AM,35.6,21.2,56,30.06,10.0,NW,3.5,-,N/A,,Clear,310,2013-03-13 10:55:00
7:15 AM,35.6,21.2,56,30.07,10.0,NNW,4.6,-,N/A,,Clear,330,2013-03-13 11:15:00
7:35 AM,33.8,23.0,65,30.08,10.0,Calm,Calm,-,N/A,,Scattered Clouds,0,2013-03-13 11:35:00
7:55 AM,33.8,23.0,65,30.08,10.0,Calm,Calm,-,N/A,,Scattered Clouds,0,2013-03-13 11:55:00
8:15 AM,33.8,23.0,65,30.09,10.0,Calm,Calm,-,N/A,,Clear,0,2013-03-13 12:15:00
8:35 AM,35.6,26.6,70,30.09,10.0,Calm,Calm,-,N/A,,Clear,0,2013-03-13 12:35:00
8:55 AM,35.6,26.6,70,30.09,10.0,South,3.5,-,N/A,,Scattered Clouds,190,2013-03-13 12:55:00
9:15 AM,37.4,26.6,65,30.09,10.0,WSW,3.5,-,N/A,,Scattered Clouds,240,2013-03-13 13:15:00
9:35 AM,41.0,28.4,61,30.09,10.0,WSW,6.9,-,N/A,,Scattered Clouds,240,2013-03-13 13:35:00
9:55 AM,41.0,26.6,57,30.09,10.0,WSW,8.1,-,N/A,,Mostly Cloudy,240,2013-03-13 13:55:00
10:15 AM,41.0,26.6,57,30.10,10.0,West,10.4,17.3,N/A,,Overcast,270,2013-03-13 14:15:00
10:35 AM,42.8,28.4,57,30.10,10.0,West,9.2,19.6,N/A,,Overcast,260,2013-03-13 14:35:00
10:55 AM,42.8,28.4,57,30.10,10.0,West,11.5,18.4,N/A,,Overcast,260,2013-03-13 14:55:00
11:15 AM,44.6,30.2,57,30.09,10.0,WSW,15.0,24.2,N/A,,Overcast,240,2013-03-13 15:15:00
11:35 AM,44.6,28.4,53,30.09,10.0,West,15.0,32.2,N/A,,Overcast,260,2013-03-13 15:35:00
11:55 AM,44.6,26.6,49,30.09,10.0,West,20.7,32.2,N/A,,Overcast,260,2013-03-13 15:55:00
12:15 PM,44.6,28.4,53,30.09,10.0,WSW,13.8,26.5,N/A,,Mostly Cloudy,240,2013-03-13 16:15:00
12:35 PM,44.6,24.8,46,30.08,10.0,West,16.1,27.6,N/A,,Scattered Clouds,260,2013-03-13 16:35:00
12:55 PM,44.6,24.8,46,30.08,10.0,WSW,19.6,26.5,N/A,,Scattered Clouds,250,2013-03-13 16:55:00
1:15 PM,44.6,26.6,49,30.08,10.0,West,15.0,28.8,N/A,,Mostly Cloudy,260,2013-03-13 17:15:00
1:35 PM,42.8,23.0,46,30.08,10.0,West,13.8,20.7,N/A,,Mostly Cloudy,280,2013-03-13 17:35:00
1:55 PM,44.6,23.0,43,30.08,10.0,WNW,17.3,21.9,N/A,,Mostly Cloudy,290,2013-03-13 17:55:00
2:15 PM,42.8,21.2,42,30.07,10.0,West,12.7,25.3,N/A,,Mostly Cloudy,280,2013-03-13 18:15:00
2:35 PM,42.8,21.2,42,30.07,10.0,West,10.4,20.7,N/A,,Mostly Cloudy,270,2013-03-13 18:35:00
2:55 PM,44.6,23.0,43,30.07,10.0,WSW,13.8,24.2,N/A,,Overcast,250,2013-03-13 18:55:00
3:15 PM,44.6,23.0,43,30.07,10.0,NW,6.9,20.7,N/A,,Overcast,310,2013-03-13 19:15:00
3:35 PM,44.6,21.2,39,30.06,10.0,NW,16.1,24.2,N/A,,Overcast,310,2013-03-13 19:35:00
3:55 PM,44.6,21.2,39,30.07,10.0,West,13.8,20.7,N/A,,Overcast,280,2013-03-13 19:55:00
4:15 PM,46.4,21.2,37,30.07,10.0,NW,16.1,21.9,N/A,,Overcast,320,2013-03-13 20:15:00
4:35 PM,42.8,19.4,39,30.08,10.0,WNW,12.7,27.6,N/A,,Overcast,290,2013-03-13 20:35:00
4:55 PM,42.8,19.4,39,30.09,10.0,NW,8.1,17.3,N/A,,Overcast,310,2013-03-13 20:55:00
5:15 PM,42.8,17.6,36,30.10,10.0,WNW,10.4,19.6,N/A,,Mostly Cloudy,290,2013-03-13 21:15:00
5:35 PM,41.0,17.6,39,30.10,10.0,NW,10.4,21.9,N/A,,Mostly Cloudy,310,2013-03-13 21:35:00
5:55 PM,41.0,19.4,42,30.11,10.0,WNW,10.4,19.6,N/A,,Overcast,300,2013-03-13 21:55:00
6:15 PM,41.0,17.6,39,30.12,10.0,NW,10.4,20.7,N/A,,Mostly Cloudy,310,2013-03-13 22:15:00
6:35 PM,39.2,15.8,39,30.12,10.0,NW,11.5,21.9,N/A,,Scattered Clouds,310,2013-03-13 22:35:00
6:55 PM,39.2,15.8,39,30.13,10.0,WNW,6.9,17.3,N/A,,Scattered Clouds,290,2013-03-13 22:55:00
7:15 PM,37.4,15.8,41,30.14,10.0,WNW,13.8,18.4,N/A,,Mostly Cloudy,300,2013-03-13 23:15:00
7:35 PM,37.4,15.8,41,30.14,10.0,West,9.2,-,N/A,,Overcast,270,2013-03-13 23:35:00
7:55 PM,37.4,17.6,45,30.15,10.0,NW,10.4,16.1,N/A,,Overcast,310,2013-03-13 23:55:00
8:15 PM,35.6,19.4,52,30.16,10.0,NW,10.4,16.1,N/A,,Overcast,310,2013-03-14 00:15:00
8:35 PM,35.6,19.4,52,30.16,10.0,NNW,8.1,16.1,N/A,,Mostly Cloudy,330,2013-03-14 00:35:00
8:55 PM,35.6,19.4,52,30.17,10.0,NW,11.5,21.9,N/A,,Overcast,310,2013-03-14 00:55:00
9:15 PM,33.8,19.4,56,30.17,10.0,NW,6.9,-,N/A,,Mostly Cloudy,320,2013-03-14 01:15:00
9:35 PM,33.8,17.6,52,30.19,10.0,NW,13.8,24.2,N/A,,Mostly Cloudy,320,2013-03-14 01:35:00
9:55 PM,33.8,15.8,48,30.19,10.0,NNW,10.4,23.0,N/A,,Scattered Clouds,330,2013-03-14 01:55:00
10:15 PM,32.0,15.8,51,30.20,10.0,NW,12.7,21.9,N/A,,Clear,320,2013-03-14 02:15:00
10:35 PM,32.0,15.8,51,30.20,10.0,NNW,6.9,-,N/A,,Clear,330,2013-03-14 02:35:00
10:55 PM,32.0,15.8,51,30.20,10.0,NW,16.1,24.2,N/A,,Clear,320,2013-03-14 02:55:00
11:15 PM,32.0,15.8,51,30.20,10.0,NW,8.1,20.7,N/A,,Mostly Cloudy,320,2013-03-14 03:15:00
11:35 PM,32.0,15.8,51,30.20,10.0,NNW,6.9,-,N/A,,Mostly Cloudy,330,2013-03-14 03:35:00
11:55 PM,32.0,14.0,48,30.20,10.0,NW,10.4,16.1,N/A,,Scattered Clouds,310,2013-03-14 03:55:00